Regional Weather Roundup
Issued by NWS

Home | Current Version | Previous Version | Text Only | Print | Product List | Glossary Off
Versions: 1 2 3 4 5 6 7 8 9 10 11 12 13 14 15 16 17 18 19 20 21 22 23 24 25 26 27 28 29 30 31 32 33 34 35 36 37 38 39 40 41 42 43 44 45 46 47 48 49 50

000
ASUS45 KCYS 032310
RWRWY

WYOMING REGIONAL WEATHER ROUNDUP
NATIONAL WEATHER SERVICE CHEYENNE WY
500 PM MDT FRI JUL 03 2015

NOTE:  "FAIR" INDICATES FEW OR NO CLOUDS BELOW 12,000 FEET
WITH NO SIGNIFICANT WEATHER AND/OR OBSTRUCTIONS TO VISIBILITY.

WYZ001-040000-
YELLOWSTONE NATIONAL PARK

CITY           SKY/WX    TMP DP  RH WIND       PRES   REMARKS
LK YELLOWSTONE   N/A     78  31  17 W14G22    30.22F
W YELLOWSTONE  NOT AVBL

$$
WYZ002>013-054>058-071-098>099-040000-
NORTHERN WYOMING

CITY           SKY/WX    TMP DP  RH WIND       PRES   REMARKS
JACKSON        FAIR      84  43  23 SW12      30.10F
CODY           FAIR      75  61  60 NW3       30.00R THUNDER
GREYBULL       FAIR      93  40  15 N6        29.87F
WORLAND        FAIR      94  47  20 SE8       29.88F HX  90
SHERIDAN       FAIR      88  50  27 E7        29.94F
BUFFALO        FAIR      84  52  33 S5        30.01F
GILLETTE       FAIR      85  51  31 CALM      29.98F
HULETT         FAIR      82  54  36 E5        30.01F
NEWCASTLE      FAIR      79  50  36 E6        30.03S

$$
WYZ014>020-022>026-101>103-040000-
CENTRAL WYOMING

CITY           SKY/WX    TMP DP  RH WIND       PRES   REMARKS
BIG PINEY      FAIR      88  34  14 NW18      30.16F
PINEDALE       FAIR      86  30  13 W13G24    30.16F
DUBOIS         FAIR      82  32  16 NW15G24   30.14F
LANDER         FAIR      86  49  27 SE7       29.97F
RIVERTON       FAIR      92  42  17 MISG      29.98F
CASPER         FAIR      86  44  23 E9        30.00F
DOUGLAS        FAIR      82  53  36 SE10      30.04F

$$
WYZ021-027>030-104>119-040000-
SOUTHERN WYOMING

CITY           SKY/WX    TMP DP  RH WIND       PRES   REMARKS
EVANSTON       FAIR      85  36  17 W9        30.18F
KEMMERER       FAIR      86  32  14 NW17G23   30.19F
FORT BRIDGER   PTCLDY    86  36  16 NW9G17    30.19F
ROCK SPRINGS   FAIR      86  28  12 W8        30.12F
DIXON          FAIR      88  32  13 CALM      30.13F
RAWLINS        FAIR      84  36  18 MISG      30.13F
SARATOGA       FAIR      84  32  15 NW7       30.17F
LARAMIE        FAIR      83  31  15 VRB7      30.17F
CHEYENNE       FAIR      76  54  46 SE6       30.14F
TORRINGTON     FAIR      86  53  32 SE12      30.00F
PINE BLUFFS    FAIR      79  54  41 S3        30.10S

$$



USA.gov is the U.S. government's official web portal to all federal, state and local government web resources and services.